Lapse_Rate
6.7 6.8 6.7 6.7 6.7 6.6 6.0 6.2 5.2 6.4 6.0 6.5 5.8 5.7 6.0 6.1 5.9 5.9 5.6 5.5 5.7 5.4 5.2 5.0 5.4 5.5 5.4 5.6 5.9 6.1 6.7 6.8 6.6 6.4 5.9 6.0 5.9 5.6 5.6 5.8 6.6 6.9 7.0 7.1
6.3 6.5 6.6 6.5 7.2 6.6 6.5 6.4 6.0 5.9 6.2 6.1 6.0 6.0 5.8 5.5 5.4 5.3 5.3 5.4 5.3 5.3 5.5 5.7 5.6 5.3 5.8 6.2 6.6 6.4 6.6 6.6 6.3 5.8 5.9 5.9 5.7 5.9 6.3 6.7 6.8 6.7 6.7 6.7
5.9 6.2 6.1 6.4 6.7 6.7 6.7 6.7 6.4 6.3 6.2 5.9 6.0 5.6 5.5 5.4 5.4 5.5 5.6 5.5 5.4 5.5 6.0 5.2 5.8 6.3 6.4 6.3 6.0 6.1 6.3 6.2 5.9 5.5 5.8 5.9 6.0 6.4 6.4 6.4 6.4 6.5 6.5 6.4
5.3 5.8 5.5 6.9 6.6 6.0 5.9 6.5 6.3 6.2 6.1 6.2 6.2 5.5 5.4 5.5 5.5 5.5 5.7 5.5 5.6 5.6 5.7 6.5 6.6 6.5 6.1 5.8 6.1 6.4 6.3 5.8 5.6 6.0 6.1 6.2 6.3 6.5 6.4 6.4 6.5 6.4 6.4 6.3
5.2 5.0 5.3 6.5 6.6 6.3 6.1 6.1 6.2 6.0 6.1 6.1 5.8 5.5 5.7 5.9 5.6 5.6 5.7 6.0 5.9 6.0 6.2 6.2 6.3 6.1 6.1 6.3 6.2 6.1 6.1 6.0 6.0 6.2 6.6 6.5 6.4 6.3 6.3 6.3 6.3 6.3 6.2 6.0
5.0 5.0 5.2 6.7 6.4 6.2 6.0 5.8 5.9 5.4 5.5 5.4 5.3 5.3 5.5 5.6 5.2 5.4 5.5 5.4 5.8 6.1 5.8 6.0 6.1 6.1 6.2 6.5 6.3 6.3 6.2 6.4 6.4 6.5 6.4 6.2 6.2 6.2 6.2 6.2 6.2 6.3 6.4 6.4
5.3 5.1 5.4 6.1 6.1 5.8 5.4 5.3 5.4 5.1 5.3 5.2 5.2 5.4 5.4 5.3 5.7 5.4 5.4 5.7 5.8 5.6 5.8 6.1 6.3 6.6 6.8 6.8 6.6 6.7 6.7 6.7 6.6 6.3 6.2 6.1 6.1 6.0 6.1 6.4 6.7 6.8 6.9 7.0
5.2 5.5 5.4 5.9 5.5 5.4 5.3 5.6 5.5 5.4 5.5 5.7 5.7 5.6 5.5 5.9 5.9 5.6 5.5 5.7 5.8 6.1 6.4 6.7 7.0 7.0 7.0 6.8 6.7 6.9 6.7 6.5 6.3 6.1 6.0 6.1 6.1 6.2 6.5 6.9 7.1 7.3 7.4 7.3
5.5 5.9 6.2 5.9 5.5 5.3 5.7 6.0 5.6 5.4 5.6 5.5 5.5 5.8 5.8 5.8 5.8 5.9 5.9 6.1 6.3 6.7 7.1 7.2 7.0 6.8 7.0 6.9 6.9 6.7 6.6 6.3 6.1 6.1 6.1 6.2 6.2 6.5 7.0 7.2 7.3 7.5 7.3 7.2
5.3 6.1 6.0 5.7 5.8 5.8 5.9 6.0 5.9 6.2 6.0 5.9 5.9 5.9 6.0 6.0 6.0 5.9 6.0 6.5 6.8 7.0 7.1 7.2 7.0 7.0 6.8 6.8 6.7 6.6 6.6 6.2 6.2 6.2 6.2 6.2 6.4 6.8 7.1 7.2 7.4 7.3 7.2 7.3
5.5 6.1 5.5 5.9 6.1 5.8 5.7 5.8 6.0 6.0 5.9 5.9 5.8 5.8 5.8 5.8 5.7 6.0 6.3 6.6 6.8 7.0 7.0 7.2 7.4 7.3 6.8 6.9 6.9 6.9 6.5 6.4 6.4 6.3 6.3 6.4 6.8 7.0 7.2 7.2 7.2 7.1 6.9 6.9
5.3 5.3 5.3 5.7 5.7 5.8 5.6 5.7 5.5 5.7 5.7 5.7 5.8 5.7 5.5 5.6 6.1 6.2 6.4 6.7 6.8 7.0 7.2 7.3 7.3 7.0 6.9 6.9 6.9 6.6 6.5 6.5 6.4 6.4 6.5 6.7 7.1 7.3 7.3 7.3 7.0 6.8 6.9 6.7
5.2 5.3 5.9 6.0 5.9 5.9 5.7 5.7 5.7 5.5 5.6 5.4 5.4 5.4 5.6 6.0 6.2 6.6 6.7 6.8 7.1 7.3 7.4 7.4 7.3 7.1 7.1 7.1 6.8 6.7 6.7 6.6 6.6 6.6 6.7 6.9 7.1 7.4 7.5 7.3 7.0 6.8 6.7 6.6
5.6 5.7 5.8 5.7 5.6 5.5 5.7 5.6 5.3 5.5 5.4 5.3 5.7 6.2 6.4 6.7 6.7 6.8 7.0 7.1 7.1 7.1 7.1 7.1 7.3 7.2 7.3 6.9 6.8 6.9 6.8 6.8 6.8 6.7 6.8 6.9 7.2 7.5 7.3 7.1 7.1 7.0 6.7 6.6
5.7 5.7 5.6 5.4 5.5 5.7 5.7 5.6 5.7 5.6 5.7 6.1 6.4 6.7 6.9 6.9 7.0 7.0 7.0 7.0 6.9 6.6 6.9 7.2 7.2 7.3 6.9 6.8 7.0 7.1 7.1 7.0 6.9 6.7 6.8 7.0 7.2 7.5 7.4 7.2 7.0 6.9 6.7 6.3
5.7 5.5 5.5 5.6 5.9 5.9 5.9 5.7 5.8 6.1 6.3 6.6 6.9 7.0 7.0 7.0 7.0 7.0 6.9 6.8 6.7 7.0 7.2 7.4 7.3 6.9 6.8 6.9 7.2 7.2 7.2 7.2 7.0 6.8 6.8 7.0 7.2 7.5 7.4 7.3 7.0 6.9 6.7 6.3
5.3 5.4 5.6 5.9 6.0 6.0 6.0 6.0 6.2 6.3 6.7 6.8 6.8 7.0 7.1 7.0 7.0 6.9 6.8 7.0 7.2 7.6 7.6 7.4 7.1 6.9 6.8 7.2 7.3 7.2 7.2 7.2 7.1 7.0 6.9 7.0 7.2 7.5 7.5 7.4 7.1 6.9 6.6 6.3
5.8 6.1 6.1 5.9 5.9 5.9 6.0 6.1 6.3 6.6 6.8 6.7 6.9 7.1 7.0 7.0 7.0 7.0 7.1 7.3 7.7 7.9 7.6 7.2 6.9 6.9 7.0 7.3 7.3 7.2 7.2 7.2 7.1 7.0 6.9 7.0 7.3 7.4 7.4 7.5 7.2 7.0 6.7 6.4
6.0 5.9 5.8 5.8 5.9 6.1 6.2 6.3 6.5 6.7 6.7 6.8 6.9 7.0 7.0 7.1 7.2 7.3 7.4 7.7 7.9 7.8 7.3 6.9 7.0 7.1 7.1 7.3 7.3 7.2 7.2 7.2 7.1 7.0 7.0 7.0 7.2 7.4 7.4 7.4 7.4 7.1 6.9 6.5
5.8 5.7 5.9 6.0 6.2 6.3 6.5 6.7 6.5 6.7 6.9 7.0 7.1 7.1 7.1 7.3 7.4 7.5 7.6 7.7 7.8 7.4 7.0 6.9 7.0 7.0 7.1 7.3 7.3 7.4 7.3 7.3 7.2 7.1 7.1 7.1 7.2 7.4 7.4 7.4 7.4 7.3 7.0 6.8
5.8 5.9 6.1 6.2 6.3 6.6 6.6 6.7 6.7 6.9 7.0 7.3 7.1 7.4 7.3 7.5 7.5 7.6 7.5 7.6 7.5 7.2 6.9 6.9 7.0 7.0 7.2 7.4 7.5 7.5 7.3 7.3 7.3 7.3 7.2 7.2 7.3 7.3 7.4 7.4 7.4 7.4 7.2 7.0
6.3 6.4 6.5 6.6 6.6 6.9 6.9 6.9 6.9 7.1 7.2 7.0 7.3 7.4 7.7 7.6 7.5 7.5 7.4 7.6 7.5 7.0 6.9 7.0 7.0 7.1 7.2 7.4 7.4 7.2 7.3 7.4 7.3 7.4 7.4 7.4 7.3 7.3 7.3 7.4 7.4 7.3 7.4 7.2
6.7 6.8 6.8 6.8 6.9 7.0 7.1 7.0 7.1 7.2 7.4 7.6 7.5 7.7 7.8 7.7 7.5 7.5 7.5 7.5 7.4 7.0 7.0 7.0 7.0 7.1 7.2 7.3 7.3 7.3 7.4 7.4 7.4 7.4 7.5 7.5 7.4 7.3 7.3 7.3 7.3 7.4 7.3 7.3
7.1 7.0 7.1 7.1 7.3 7.3 7.2 7.2 7.4 7.5 7.5 7.7 7.8 7.7 7.7 7.6 7.6 7.6 7.5 7.6 7.3 7.1 7.1 7.0 7.2 7.2 7.2 7.2 7.3 7.3 7.3 7.4 7.4 7.4 7.4 7.6 7.5 7.3 7.3 7.3 7.3 7.3 7.3 7.2
7.1 7.2 7.3 7.4 7.5 7.5 7.5 7.5 7.5 7.6 7.8 8.2 7.9 7.6 7.5 7.5 7.5 7.4 7.5 7.6 7.4 7.1 7.0 7.1 7.3 7.2 7.2 7.2 7.2 7.3 7.3 7.3 7.4 7.5 7.5 7.5 7.5 7.3 7.2 7.3 7.3 7.3 7.3 7.2
7.3 7.5 7.5 7.6 7.7 7.6 7.7 7.7 7.7 7.8 8.1 8.1 8.0 7.6 7.6 7.5 7.5 7.4 7.5 7.5 7.4 7.1 7.1 7.2 7.2 7.3 7.4 7.3 7.3 7.3 7.3 7.4 7.4 7.5 7.6 7.5 7.5 7.3 7.3 7.2 7.3 7.3 7.3 7.2
7.5 7.4 7.6 7.9 8.0 8.1 8.1 8.1 8.0 8.0 8.0 8.1 8.0 7.8 7.8 7.7 7.8 7.8 7.6 7.5 7.4 7.4 7.2 7.3 7.3 7.4 7.5 7.5 7.5 7.4 7.4 7.4 7.4 7.5 7.6 7.6 7.6 7.5 7.4 7.4 7.4 7.4 7.3 7.3
Wind_Speed
4 8 5 10 12 11 12 12 7 14 15 19 15 11 7 6 11 13 13 10 9 9 7 8 9 9 7 9 7 5 4 5 6 6 4 3 4 5 6 8 9 8 9 8
3 5 4 8 14 12 13 13 13 18 20 17 11 3 5 11 12 12 9 6 7 8 7 8 9 9 9 9 5 3 3 3 4 4 7 9 10 10 9 10 9 7 7 7
3 5 8 7 4 4 3 5 4 6 8 5 4 4 13 15 11 5 4 5 9 10 9 9 10 9 11 8 4 1 0 3 5 7 8 7 8 9 9 8 8 8 8 7
2 4 1 3 2 5 7 13 8 8 6 5 8 14 11 8 5 5 7 9 10 10 11 10 10 11 7 3 3 3 4 5 7 7 7 8 9 8 8 7 8 8 7 8
2 3 6 11 6 2 4 7 3 4 8 12 16 12 2 5 4 2 10 12 10 10 10 9 10 8 5 5 5 6 6 7 6 6 7 7 8 8 8 8 7 6 8 10
2 3 5 4 1 2 3 6 3 8 15 21 13 12 6 3 7 12 12 11 12 11 8 8 8 6 7 9 7 8 6 5 5 5 6 7 7 8 6 6 6 7 9 9
6 5 8 6 4 2 2 3 4 9 14 9 5 2 4 6 13 13 14 15 13 10 8 8 8 7 7 6 7 7 5 4 4 4 5 6 6 6 6 7 6 7 8 8
2 4 7 2 2 1 3 6 9 9 5 7 6 6 7 11 12 14 15 16 14 9 9 7 7 7 7 8 8 7 6 4 4 4 4 5 6 6 7 7 8 9 9 9
7 6 2 3 8 3 2 2 4 3 1 4 1 7 11 10 14 13 14 13 11 9 11 9 8 7 9 11 6 7 6 5 4 4 5 6 7 7 7 7 7 8 9 10
1 7 12 9 3 4 2 3 3 2 2 5 8 10 13 12 11 11 13 13 12 11 12 11 8 6 8 9 7 6 6 5 4 4 6 7 5 5 6 7 7 8 9 10
6 15 10 2 2 3 4 4 3 6 7 8 9 12 12 10 12 11 11 12 12 12 11 11 9 9 7 7 4 6 6 4 4 3 5 6 5 4 5 5 6 8 8 9
6 8 4 5 4 2 5 3 1 5 8 9 9 12 10 12 11 9 12 13 13 14 11 9 8 7 7 5 5 5 5 3 2 3 3 4 5 6 3 5 8 10 12 9
7 2 1 4 6 5 1 2 4 6 8 10 11 7 10 11 10 11 11 13 13 12 10 8 6 6 6 6 5 4 2 2 2 2 3 4 5 6 6 6 6 8 10 12
1 4 5 3 4 3 5 5 6 8 9 8 9 10 9 10 11 11 12 13 13 11 8 4 5 4 5 6 4 3 1 2 3 2 3 4 4 5 4 5 7 7 7 11
7 8 8 9 4 2 4 6 9 9 9 10 8 10 10 12 12 12 12 11 11 10 5 4 5 5 6 5 4 3 3 4 3 2 3 3 3 4 4 5 6 6 6 7
9 9 5 1 5 7 7 9 9 10 10 10 11 11 11 10 12 12 12 9 7 7 5 2 2 4 4 5 4 4 4 4 2 2 3 4 4 4 5 5 6 6 6 7
4 1 3 5 7 8 9 9 9 11 12 12 11 8 12 12 12 11 11 6 4 5 4 3 1 4 6 5 4 3 2 3 2 3 3 4 4 4 4 5 5 5 5 5
2 1 3 5 8 9 10 9 9 10 10 11 9 9 10 8 10 10 12 6 4 4 4 2 2 4 3 4 4 4 2 2 2 3 3 4 4 4 4 4 4 4 5 5
2 4 6 6 6 7 8 9 10 11 11 9 8 11 10 9 10 11 7 6 5 5 3 3 2 4 4 3 3 3 2 2 2 3 3 4 4 3 4 4 4 4 4 4
6 6 6 8 9 4 9 9 9 11 11 9 9 9 11 12 9 8 5 8 6 4 4 4 2 2 1 0 2 2 3 4 4 3 3 4 4 4 3 3 4 4 3 3
7 7 6 7 9 8 6 8 8 11 13 9 8 11 11 11 8 4 5 6 4 6 6 5 3 2 2 2 3 4 4 4 4 3 3 4 4 4 3 3 3 3 3 3
5 5 7 7 7 10 8 7 8 9 9 10 9 10 11 10 8 5 7 7 3 5 5 3 2 3 2 3 3 3 3 4 4 3 3 4 4 4 4 3 3 3 3 3
7 6 8 7 7 10 10 8 8 8 10 11 10 11 9 7 6 5 5 2 4 4 3 2 2 4 3 3 2 3 4 4 4 5 3 3 4 4 4 4 3 3 3 3
8 7 8 6 5 5 9 10 9 8 10 11 11 10 8 6 6 4 4 3 4 4 3 3 3 2 2 3 3 4 4 4 4 4 4 3 3 3 3 4 4 3 3 3
7 6 4 6 8 8 9 10 8 10 13 11 10 9 8 4 5 1 3 4 5 4 3 4 4 2 1 1 2 3 4 5 5 5 4 4 4 4 4 3 4 4 3 3
5 5 5 6 8 8 8 7 8 7 8 9 7 5 4 3 3 4 4 4 4 4 3 3 3 2 2 2 2 2 3 4 4 4 5 5 4 4 4 4 4 4 4 3
4 4 5 6 5 6 6 7 7 8 8 8 9 6 3 4 5 6 7 5 4 4 3 3 3 4 3 2 2 2 2 3 4 3 3 4 4 5 5 5 4 4 4 4
Wind_Direction
260 269 277 273 254 229 224 233 242 273 276 278 288 297 302 319 304 303 308 340 4 343 317 318 340 328 322 330 335 338 337 339 338 320 349 337 315 324 316 318 322 316 319 322
289 335 320 284 274 252 238 247 250 261 268 282 291 215 269 311 301 312 349 10 317 283 308 313 331 330 320 317 331 321 304 13 14 342 329 341 332 331 332 333 342 345 347 346
269 329 310 291 242 186 203 207 238 263 301 4 307 292 312 319 334 35 32 342 316 313 310 326 326 325 320 318 317 254 238 307 313 329 338 344 342 343 340 337 339 343 345 345
292 337 267 256 235 238 251 273 265 280 334 346 332 321 317 30 71 46 347 303 288 312 320 322 325 322 308 271 236 238 272 306 324 335 338 339 343 341 337 336 336 334 340 345
244 220 305 296 289 142 174 284 42 38 346 331 323 323 335 56 51 302 251 270 304 313 312 320 320 314 255 266 267 266 287 318 330 339 331 339 341 334 330 326 330 341 338 331
161 253 268 250 357 12 152 286 142 352 339 317 312 295 309 348 304 280 283 296 304 308 294 304 314 298 280 283 283 290 303 315 322 327 333 336 330 322 322 320 322 332 329 328
249 256 267 262 298 256 13 322 274 311 308 304 333 15 282 282 279 288 294 303 307 286 282 300 304 305 295 283 270 270 281 288 312 320 325 322 312 310 316 319 314 319 317 318
169 238 277 203 274 245 323 293 269 314 19 75 320 354 298 284 292 307 313 315 309 291 297 298 297 293 278 270 284 277 256 269 294 308 312 299 298 305 317 319 317 323 323 326
186 230 262 236 282 349 315 358 15 59 291 32 170 270 297 301 308 305 310 314 313 301 297 293 285 270 271 278 285 273 241 260 280 304 300 296 297 309 316 324 325 329 331 334
205 239 259 269 304 89 124 147 204 52 229 245 284 309 307 303 304 316 320 319 319 311 302 294 298 297 283 297 292 253 253 265 288 301 314 309 302 308 315 326 332 333 333 333
248 286 279 244 204 188 174 89 156 223 266 288 297 299 295 297 312 315 318 325 325 315 305 300 315 306 307 304 277 262 267 277 286 308 317 319 320 318 326 334 336 337 338 335
262 300 301 6 28 99 137 177 293 324 310 303 297 301 313 313 314 316 325 328 328 322 311 315 316 320 341 356 341 303 294 295 295 315 335 330 331 327 344 352 354 353 350 349
283 29 291 75 113 145 123 354 334 317 310 307 311 300 304 306 315 313 317 319 316 311 308 311 317 337 356 -0 358 1 325 309 314 315 325 339 338 337 337 342 343 360 1 356
66 131 103 166 137 71 13 333 310 290 292 296 300 306 306 306 305 309 314 312 308 303 305 319 334 350 5 6 8 14 344 291 308 312 334 336 339 338 334 338 339 346 354 359
43 61 88 93 69 328 268 280 300 299 301 303 304 293 300 300 299 297 300 310 313 309 319 338 354 347 345 350 355 346 328 337 334 306 315 324 326 333 336 338 343 345 350 1
89 99 106 23 268 285 306 309 296 294 298 302 301 300 297 297 295 294 307 316 316 316 321 324 340 338 339 354 358 343 338 341 334 325 328 332 336 337 344 351 351 354 357 -0
112 39 316 320 323 312 300 296 294 291 293 297 294 304 311 306 299 298 310 305 288 281 260 268 262 321 323 320 331 315 311 337 349 341 339 334 331 337 347 349 352 353 359 3
70 343 322 296 298 308 315 313 302 296 292 297 294 295 301 300 301 298 307 300 290 267 245 218 269 292 325 358 355 327 289 273 323 331 332 333 335 336 346 346 349 351 355 357
285 307 307 304 308 308 306 308 305 299 296 291 292 288 282 273 281 298 291 271 267 264 254 203 304 325 335 1 4 1 329 285 300 317 330 321 318 334 340 343 343 345 351 351
317 315 313 312 313 291 300 295 289 294 293 289 286 291 288 292 290 283 267 258 252 240 182 173 233 306 305 0 339 334 303 300 277 311 314 321 309 317 325 321 326 333 341 349
297 290 287 286 290 293 265 269 280 291 298 298 277 289 286 285 272 254 256 262 267 204 207 201 211 240 251 269 307 311 292 298 285 301 312 317 310 299 306 309 313 313 326 331
292 292 289 290 290 295 296 288 292 290 291 294 293 282 293 278 271 251 232 249 288 195 198 216 231 224 246 255 301 322 297 305 305 285 298 310 303 293 293 295 299 307 303 308
285 279 280 275 276 290 302 300 290 283 293 299 295 294 290 281 272 265 267 247 225 212 239 260 205 241 268 253 259 293 303 303 305 310 282 306 303 292 283 284 291 287 290 292
282 278 274 280 280 289 297 309 302 296 296 293 285 277 272 292 283 235 236 230 228 211 222 238 231 266 320 290 260 274 287 288 289 299 273 280 286 284 280 275 272 273 263 258
263 275 278 305 310 301 293 287 304 314 313 302 291 285 270 262 237 191 186 191 204 215 239 225 204 210 280 296 292 307 303 306 294 287 272 267 276 280 279 268 256 262 254 250
278 289 299 300 293 297 294 298 300 303 307 305 299 292 297 265 217 207 203 211 201 208 207 215 226 228 246 261 277 304 312 310 305 306 287 268 267 272 271 268 260 247 239 240
271 271 286 287 277 285 284 284 292 300 307 305 297 296 281 258 224 215 210 203 212 222 221 215 232 242 248 244 259 281 303 317 322 327 328 314 299 287 276 270 268 256 238 223